Flag for Spain Weather past 2 weeks in Mahón, Menorca, Spain

Now
82 °F

Scattered clouds.


Feels Like: 87 °F
Forecast: 76 / 86 °F
Wind: 14 mph from Northeast

Location: Menorca / Mahon

Current Time: Aug 29, 2015 at 12:10:54 PM

Latest Report: Aug 29, 2015 at 11:30 AM


Visibility: N/A

Pressure: 30.12 "Hg

Humidity: 70%

Dew point: 72 °F

Location of MahónLocation

Historic Weather in Mahón — Graph

°F

Mahón temperature yesterday

Maximum temperature yesterday: 86 °F (at 2:00 PM)
Minimum temperature yesterday: 72 °F (at 6:00 AM)
Average temperature yesterday: 79 °F

Past Weeks' High & Low Weather Summary

 TemperatureHumidityPressure
High86 °F (Aug 24, 1:00 PM)100% (Aug 17, 1:30 PM)30.18 "Hg (Aug 17, 1:30 PM)
Low64 °F (Aug 16, 1:00 AM)40% (Aug 26, 1:30 PM)29.77 "Hg (Aug 23, 4:30 PM)
Average77 °F69%30.00 "Hg
* Reported Aug 14 10:00 AM — Aug 29 10:30 AM, Mahón, Weather by CustomWeather, © 2015

Note: Actual official high and low records may vary slightly from our data, if they occured in-between our weather recording intervals... More about our weather records

Advertising

Mahón weather history for previous 24 hours

 ConditionsComfort  
Time TempWeatherWind HumidityBarometerVisibility
10:30 AM
Sat, Aug 29
82 °FPassing clouds.14 mph66%30.12 "HgN/A
10:00 AM81 °FPassing clouds.13 mph70%30.12 "HgN/A
9:30 AM81 °FPassing clouds.13 mph74%30.09 "HgN/A
9:00 AM79 °FSunny.12 mph74%30.09 "Hg10 mi
8:00 AM75 °FClear.8 mph83%30.09 "Hg10 mi
7:30 AM73 °FPassing clouds.9 mph89%30.09 "HgN/A
7:00 AM73 °FClear.8 mph89%30.09 "Hg10 mi
6:30 AM73 °FClear.6 mph89%30.07 "Hg10 mi
6:00 AM72 °FClear.6 mph94%30.09 "Hg10 mi
5:30 AM73 °FClear.7 mph89%30.09 "Hg10 mi
5:00 AM73 °FClear.6 mph89%30.09 "Hg10 mi
12:30 AM75 °FPassing clouds.6 mph89%30.09 "HgN/A
12:00 AM75 °FPassing clouds.6 mph89%30.12 "HgN/A
11:30 PM
Fri, Aug 28
75 °FPassing clouds.6 mph89%30.09 "HgN/A
11:00 PM75 °FPassing clouds.7 mph89%30.09 "HgN/A
10:30 PM75 °FPassing clouds.7 mph89%30.09 "HgN/A
10:00 PM77 °FPassing clouds.7 mph83%30.09 "HgN/A
9:30 PM77 °FPassing clouds.8 mph83%30.09 "HgN/A
9:00 PM77 °FPassing clouds.6 mph83%30.07 "HgN/A
8:30 PM77 °FPassing clouds.8 mph83%30.07 "HgN/A
8:00 PM79 °FPassing clouds.9 mph79%30.07 "HgN/A
7:30 PM81 °FPassing clouds.8 mph70%30.07 "HgN/A
7:00 PM81 °FPassing clouds.9 mph70%30.07 "HgN/A
6:30 PM82 °FPassing clouds.10 mph66%30.07 "HgN/A
6:00 PM82 °FPassing clouds.9 mph62%30.07 "HgN/A
5:30 PM84 °FPassing clouds.9 mph55%30.09 "HgN/A
5:00 PM84 °FPassing clouds.8 mph58%30.09 "HgN/A
4:30 PM84 °FPassing clouds.7 mph58%30.09 "HgN/A
4:00 PM84 °FPassing clouds.7 mph58%30.09 "HgN/A
3:30 PM84 °FPassing clouds.8 mph58%30.09 "HgN/A
3:00 PM84 °FPassing clouds.10 mph62%30.09 "HgN/A
2:30 PM84 °FPassing clouds.10 mph62%30.09 "HgN/A
2:00 PM86 °FPassing clouds.9 mph59%30.09 "HgN/A
1:30 PM84 °FPassing clouds.7 mph58%30.09 "HgN/A
1:00 PM84 °FPassing clouds.9 mph55%30.09 "HgN/A
12:30 PM82 °FPassing clouds.8 mph62%30.09 "HgN/A
12:00 PM82 °FPassing clouds.9 mph66%30.09 "HgN/A
Weather by CustomWeather, © 2015

See weather overviewHow to use our weather pages